Regional Weather Roundup
Issued by NWS

Home | Current Version | Previous Version | Graphics & Text | Print | Product List | Glossary On
Versions: 1 2 3 4 5 6 7 8 9 10 11 12 13 14 15 16 17 18 19 20 21 22 23 24 25 26 27
000
ASUS45 KTFX 170110
RWRMT
MONTANA REGIONAL WEATHER ROUNDUP
NATIONAL WEATHER SERVICE GREAT FALLS MT
700 PM MDT WED AUG 16 2017

NOTE: "FAIR" INDICATES FEW OR NO CLOUDS BELOW 12000 FEET WITH NO
SIGNIFICANT WEATHER AND/OR OBSTRUCTIONS TO VISIBILITY.

MTZ001>007-043-170200-
WEST OF THE DIVIDE

CITY           SKY/WX    TMP DP  RH WIND       PRES   REMARKS
KALISPELL      MOSUNNY   81  37  20 S9        29.89F
MISSOULA       SUNNY     83  33  16 W10       29.93S
BUTTE          CLOUDY    78  30  17 N13       30.05S
MULLAN PASS    SUNNY     65  34  31 VRB5      30.13S
ANACONDA         N/A     75  37  25 NW7       30.01S
DEER LODGE       N/A     75  32  20 NW16      30.01S
EUREKA           N/A     82  37  20 MISG      29.89S
HAMILTON         N/A     79  36  21 W5        29.96S
LIBBY            N/A     82  36  18 W6        29.89F
RONAN            N/A     83  36  18 MISG      29.98
$$

MTZ008-052>055-170200-
SOUTHWEST MONTANA

CITY           SKY/WX    TMP DP  RH WIND       PRES   REMARKS
BOZEMAN        SUNNY     81  39  22 NE6       29.95F
DILLON         SUNNY     76  39  26 W9        29.99F
W YELLOWSTONE  SUNNY     72  30  21 SW12      30.14S
ENNIS          CLOUDY    79  37  22 S8        30.06S
THREE FORKS      N/A     82  38  20 NW3       29.94S
TWIN BRIDGES     N/A     82  36  19 CALM      29.98F
$$

MTZ009-010-012-014-046-048-049-054-170200-
EAST SLOPES AND CENTRAL MONTANA

CITY           SKY/WX    TMP DP  RH WIND       PRES   REMARKS
CUT BANK       SUNNY     78  31  17 SW10      29.91F
GREAT FALLS    MOSUNNY   82  24  12 W6        29.90F
MALMSTROM AFB  MOSUNNY   82  27  13 NW8       29.90S
HELENA         CLOUDY    83  31  15 NW16G22   29.93R HAZE
AUGUSTA          N/A     79  24  13 W13G18    29.95S
CHOTEAU          N/A     82  28  14 N7        29.94S
FAIRFIELD        N/A     82  26  12 N9        29.91S
POWER            N/A     81  25  13 N6        29.91S
RAYNESFORD       N/A     79  25  13 NW8       29.93S
ULM              N/A     81  27  14 SW8       29.90F
$$

MTZ011-013-016-021-045-047-050-051-170200-
NORTH CENTRAL MONTANA

CITY           SKY/WX    TMP DP  RH WIND       PRES   REMARKS
HAVRE          MOSUNNY   84  30  14 W7        29.83S
LEWISTOWN      SUNNY     78  30  17 N9        29.93S
N BAR RANCH      N/A     77  25  14 NW6       29.97S
CHINOOK          N/A     82  39  21 W5        29.81F
DENTON           N/A     81  25  13 NW10      29.87S
GRASS RANGE      N/A     81  26  13 NW12      29.88S
WINIFRED         N/A     79  26  14 N9        29.90S
$$

MTZ017>020-022>027-061-062-170200-
NORTHEAST MONTANA

CITY           SKY/WX    TMP DP  RH WIND       PRES   REMARKS
GLASGOW        SUNNY     84  43  23 NE3       29.79S
JORDAN           N/A     87  24  10 NW12      29.82S
SIDNEY         SUNNY     80  54  40 SE10      29.84F
WOLF POINT     SUNNY     85  44  23 E13       29.80F
MALTA          SUNNY     86  30  13 NW10      29.81S
PLENTYWOOD       N/A     81  48  32 CALM      29.85S
POPLAR           N/A     82  43  24 E7        29.81F
$$

MTZ028>42-056>058-170200-
SOUTHCENTRAL AND SOUTHEAST MONTANA

CITY           SKY/WX    TMP DP  RH WIND       PRES   REMARKS
BAKER          PTCLDY    79  42  26 SE12      29.92S
BILLINGS       CLOUDY    84  40  21 S21G29    29.89S
LIVINGSTON     CLOUDY    80  40  23 SW16      29.95F
MILES CITY     SUNNY     85  38  18 S7        29.83F
BIG TIMBER     MOSUNNY   81  37  21 W10       29.97S
FORSYTH          N/A     88  34  14 W6        29.82F
HARLOWTON        N/A     81  28  14 MISG      29.94F
LAUREL           N/A     82  44  26 SE2       29.91R
$$

REGIONAL REPORTS...DAKOTAS

CITY           SKY/WX    TMP DP  RH WIND       PRES   REMARKS
WILLISTON      PTCLDY    78  51  38 SE6       29.86F
MINOT          CLEAR     74  53  48 NE5       29.89S
DICKINSON      CLEAR     76  53  44 E6        29.91S
BEACH            N/A     77  46  33 SE10      29.93F
CROSBY           N/A     75  48  38 SE7       29.86F
TIOGA            N/A     73  52  46 SE8       29.91S
WATFORD CITY     N/A     79  50  36 E7        29.87F
BISMARCK       PTCLDY    75  52  44 N7        29.90S
GRAND FORKS    CLOUDY    67  65  93 N6        29.82S
FARGO          CLOUDY    66  65  96 N10       29.80F
BUFFALO SD       N/A     79  48  33 E5        29.89S
RAPID CITY     CLEAR     77  48  35 N3        29.98R
$$

REGIONAL REPORTS...WYOMING/IDAHO/WASHINGTON

CITY           SKY/WX    TMP DP  RH WIND       PRES   REMARKS
GILLETTE       SUNNY     79  30  16 VRB3      29.99F
SHERIDAN       SUNNY     76  43  30 S7        29.95S
BUFFALO WY     MOSUNNY   75  35  23 S8        30.03F
CODY           MOSUNNY   75  38  26 SW9       30.03
YELLOWSTONE LA   N/A     65  26  23 VRB6      30.24F
IDAHO FALLS    MOSUNNY   82  35  18 SW16G22   30.02F
SALMON         CLOUDY    84  42  22 N6        29.93F
BOISE          SUNNY     87  34  15 NW10      29.94F
SPOKANE        MOSUNNY   82  38  20 SW10      29.94F
$$

REGIONAL REPORTS...ALBERTA

CITY           SKY/WX    TMP DP  RH WIND       PRES   REMARKS
EDMONTON       MOSUNNY   70  52  52 W2        29.84S
CALGARY        PTSUNNY   77  36  22 NW14      29.86S SMOKE
LETHBRIDGE     PTSUNNY   82  37  20 W16       29.83F
MEDICINE HAT   PTSUNNY   81  37  21 NW13      29.82S
$$

REGIONAL REPORTS...SASKATCHEWAN

CITY           SKY/WX    TMP DP  RH WIND       PRES   REMARKS
SWIFT CURRENT  SUNNY     75  43  31 E12G17    29.83S
REGINA         MOSUNNY   75  41  29 NE7       29.85F
SASKATOON      MOSUNNY   70  48  46 NE3       29.87S
$$




USA.gov is the U.S. government's official web portal to all federal, state and local government web resources and services.